• In Italy
  • List of Countries
  • For 7 days
  • Water Temperature
  • Satellite Maps
  • Weather Map
  • Weather Widgets
  • user-avatar
    Login

    Hourly Weather Agra

    Today, 23 July, Monday

    Time Temperature Precipitation Wind Pressure Humidity
    00:00 +34°C° 0.7 mm 2 mps 733 mmHg 65%
    01:00 +34°C° 0.7 mm 2 mps 733 mmHg 66%
    02:00 +34°C° 0.7 mm 2 mps 733 mmHg 67%
    03:00 +34°C° 0.9 mm 2 mps 733 mmHg 67%
    04:00 +32°C° 0.9 mm 2 mps 733 mmHg 68%
    05:00 +33°C° 0.9 mm 3 mps 733 mmHg 69%
    06:00 +34°C° 1.2 mm 3 mps 733 mmHg 66%
    07:00 +34°C° 1.2 mm 4 mps 733 mmHg 63%
    08:00 +35°C° 1.2 mm 5 mps 734 mmHg 60%
    09:00 +36°C° 0.4 mm 6 mps 734 mmHg 56%
    10:00 +38°C° 0.4 mm 6 mps 733 mmHg 52%
    11:00 +39°C° 0.4 mm 6 mps 733 mmHg 48%
    12:00 +39°C° 0.1 mm 6 mps 733 mmHg 48%
    13:00 +39°C° 0.1 mm 6 mps 732 mmHg 48%
    14:00 +40°C° 0.1 mm 5 mps 732 mmHg 48%
    15:00 +39°C° 0 mm 5 mps 731 mmHg 49%
    16:00 +38°C° 0 mm 4 mps 731 mmHg 49%
    17:00 +38°C° 0 mm 4 mps 731 mmHg 50%
    18:00 +37°C° 0.1 mm 3 mps 731 mmHg 52%
    19:00 +37°C° 0.1 mm 3 mps 731 mmHg 54%
    20:00 +36°C° 0.1 mm 2 mps 731 mmHg 56%
    21:00 +36°C° 0 mm 2 mps 732 mmHg 58%
    22:00 +35°C° 0 mm 2 mps 732 mmHg 60%
    23:00 +34°C° 0 mm 1 mps 732 mmHg 62%

    Tomorrow, 24 July, Tuesday

    Time Temperature Precipitation Wind Pressure Humidity
    00:00 +34°C° 0.2 mm 1 mps 732 mmHg 63%
    01:00 +33°C° 0.2 mm 1 mps 732 mmHg 63%
    02:00 +33°C° 0.2 mm 1 mps 732 mmHg 64%
    03:00 +34°C° 0.2 mm 2 mps 732 mmHg 65%
    04:00 +34°C° 0.2 mm 2 mps 732 mmHg 66%
    05:00 +32°C° 0.2 mm 2 mps 732 mmHg 67%
    06:00 +34°C° 0.6 mm 3 mps 732 mmHg 63%
    07:00 +35°C° 0.6 mm 4 mps 732 mmHg 59%
    08:00 +36°C° 0.6 mm 5 mps 733 mmHg 56%
    09:00 +37°C° 0.1 mm 5 mps 733 mmHg 51%
    10:00 +40°C° 0.1 mm 6 mps 733 mmHg 47%
    11:00 +41°C° 0.1 mm 6 mps 732 mmHg 42%
    12:00 +41°C° 0 mm 6 mps 732 mmHg 42%
    13:00 +41°C° 0 mm 5 mps 731 mmHg 42%
    14:00 +41°C° 0 mm 5 mps 731 mmHg 42%
    15:00 +40°C° 0.1 mm 4 mps 731 mmHg 44%
    16:00 +39°C° 0.1 mm 3 mps 731 mmHg 47%
    17:00 +38°C° 0.1 mm 2 mps 730 mmHg 49%
    18:00 +38°C° 0.5 mm 2 mps 731 mmHg 51%
    19:00 +37°C° 0.5 mm 2 mps 731 mmHg 53%
    20:00 +37°C° 0.5 mm 2 mps 731 mmHg 55%
    21:00 +35°C° 2.4 mm 1 mps 731 mmHg 59%
    22:00 +34°C° 2.4 mm 1 mps 732 mmHg 63%
    23:00 +34°C° 2.4 mm 1 mps 732 mmHg 67%

    Day after tomorrow, 25 July, Wednesday

    Time Temperature Precipitation Wind Pressure Humidity
    00:00 +33°C° 2.5 mm 1 mps 732 mmHg 69%
    01:00 +33°C° 2.5 mm 1 mps 732 mmHg 71%
    02:00 +32°C° 2.5 mm 1 mps 731 mmHg 73%
    03:00 +32°C° 1.5 mm 2 mps 731 mmHg 74%
    04:00 +32°C° 1.5 mm 2 mps 731 mmHg 75%
    05:00 +32°C° 1.5 mm 2 mps 731 mmHg 76%
    06:00 +33°C° 0.7 mm 3 mps 732 mmHg 73%
    07:00 +34°C° 0.7 mm 3 mps 732 mmHg 70%
    08:00 +34°C° 0.7 mm 4 mps 732 mmHg 67%
    09:00 +35°C° 1.1 mm 3 mps 732 mmHg 65%
    10:00 +36°C° 1.1 mm 3 mps 732 mmHg 63%
    11:00 +36°C° 1.1 mm 3 mps 732 mmHg 61%
    12:00 +36°C° 1.4 mm 3 mps 732 mmHg 61%
    13:00 +36°C° 1.4 mm 3 mps 731 mmHg 61%
    14:00 +36°C° 1.4 mm 3 mps 731 mmHg 61%
    15:00 +36°C° 2.5 mm 3 mps 731 mmHg 63%
    16:00 +35°C° 2.5 mm 4 mps 731 mmHg 66%
    17:00 +35°C° 2.5 mm 4 mps 731 mmHg 69%
    18:00 +34°C° 3.6 mm 4 mps 731 mmHg 72%
    19:00 +34°C° 3.6 mm 4 mps 731 mmHg 74%
    20:00 +33°C° 3.6 mm 4 mps 732 mmHg 77%
    21:00 +32°C° 2.7 mm 4 mps 732 mmHg 79%
    22:00 +32°C° 2.7 mm 5 mps 732 mmHg 81%
    23:00 +30°C° 2.7 mm 5 mps 732 mmHg 83%

    26 July, Thursday

    Time Temperature Precipitation Wind Pressure Humidity
    00:00 +30°C° 2.6 mm 5 mps 732 mmHg 84%
    01:00 +30°C° 2.6 mm 5 mps 732 mmHg 85%
    02:00 +29°C° 2.6 mm 5 mps 731 mmHg 86%
    03:00 +29°C° 1.8 mm 5 mps 732 mmHg 87%
    04:00 +29°C° 1.8 mm 5 mps 732 mmHg 87%
    05:00 +29°C° 1.8 mm 5 mps 732 mmHg 87%
    06:00 +29°C° 2 mm 5 mps 732 mmHg 86%
    07:00 +29°C° 2 mm 6 mps 733 mmHg 85%
    08:00 +29°C° 2 mm 6 mps 733 mmHg 84%
    09:00 +30°C° 0.4 mm 6 mps 733 mmHg 82%
    10:00 +30°C° 0.4 mm 6 mps 734 mmHg 79%
    11:00 +32°C° 0.4 mm 6 mps 734 mmHg 77%
    12:00 +32°C° 0.9 mm 5 mps 733 mmHg 77%
    13:00 +32°C° 0.9 mm 5 mps 733 mmHg 76%
    14:00 +32°C° 0.9 mm 5 mps 732 mmHg 76%
    15:00 +32°C° 0.4 mm 4 mps 732 mmHg 76%
    16:00 +32°C° 0.4 mm 4 mps 732 mmHg 75%
    17:00 +33°C° 0.4 mm 4 mps 732 mmHg 74%
    18:00 +32°C° 1.1 mm 4 mps 732 mmHg 77%
    19:00 +31°C° 1.1 mm 3 mps 732 mmHg 79%
    20:00 +30°C° 1.1 mm 3 mps 732 mmHg 81%
    21:00 +30°C° 1.5 mm 3 mps 733 mmHg 82%
    22:00 +30°C° 1.5 mm 3 mps 733 mmHg 82%
    23:00 +30°C° 1.5 mm 4 mps 733 mmHg 82%

    27 July, Friday

    Time Temperature Precipitation Wind Pressure Humidity
    00:00 +30°C° 1.1 mm 4 mps 732 mmHg 82%
    01:00 +29°C° 1.1 mm 4 mps 732 mmHg 82%
    02:00 +29°C° 1.1 mm 5 mps 732 mmHg 82%
    03:00 +29°C° 0.6 mm 4 mps 732 mmHg 82%
    04:00 +29°C° 0.6 mm 4 mps 732 mmHg 82%
    05:00 +29°C° 0.6 mm 4 mps 732 mmHg 83%
    06:00 +29°C° 0.3 mm 4 mps 733 mmHg 81%
    07:00 +29°C° 0.3 mm 5 mps 733 mmHg 80%
    08:00 +30°C° 0.3 mm 5 mps 734 mmHg 78%
    09:00 +30°C° 0.2 mm 5 mps 733 mmHg 76%
    10:00 +32°C° 0.2 mm 5 mps 733 mmHg 73%
    11:00 +33°C° 0.2 mm 5 mps 733 mmHg 71%
    12:00 +33°C° 0.1 mm 4 mps 733 mmHg 68%
    13:00 +34°C° 0.1 mm 4 mps 732 mmHg 66%
    14:00 +35°C° 0.1 mm 4 mps 732 mmHg 63%
    15:00 +35°C° 0 mm 4 mps 731 mmHg 64%
    16:00 +34°C° 0 mm 4 mps 731 mmHg 65%
    17:00 +34°C° 0 mm 4 mps 731 mmHg 66%
    18:00 +33°C° 0 mm 4 mps 731 mmHg 69%
    19:00 +33°C° 0 mm 3 mps 732 mmHg 72%
    20:00 +31°C° 0 mm 3 mps 732 mmHg 75%
    21:00 +31°C° 0 mm 3 mps 732 mmHg 76%
    22:00 +31°C° 0 mm 3 mps 732 mmHg 76%
    23:00 +30°C° 0 mm 3 mps 732 mmHg 77%

    28 July, Saturday

    Time Temperature Precipitation Wind Pressure Humidity
    00:00 +30°C° 0.1 mm 3 mps 732 mmHg 78%
    01:00 +30°C° 0.1 mm 3 mps 731 mmHg 79%
    02:00 +29°C° 0.1 mm 3 mps 731 mmHg 80%
    03:00 +29°C° 1 mm 3 mps 731 mmHg 81%
    04:00 +29°C° 1 mm 3 mps 731 mmHg 82%
    05:00 +29°C° 1 mm 3 mps 731 mmHg 83%
    06:00 +29°C° 0.6 mm 4 mps 732 mmHg 80%
    07:00 +30°C° 0.6 mm 4 mps 733 mmHg 77%
    08:00 +32°C° 0.6 mm 4 mps 733 mmHg 74%
    09:00 +33°C° 0.2 mm 4 mps 733 mmHg 70%
    10:00 +34°C° 0.2 mm 5 mps 733 mmHg 66%
    11:00 +35°C° 0.2 mm 5 mps 733 mmHg 62%
    12:00 +35°C° 0.6 mm 5 mps 732 mmHg 61%
    13:00 +36°C° 0.6 mm 5 mps 732 mmHg 61%
    14:00 +36°C° 0.6 mm 4 mps 731 mmHg 60%
    15:00 +35°C° 0.9 mm 4 mps 731 mmHg 62%
    16:00 +35°C° 0.9 mm 3 mps 731 mmHg 64%
    17:00 +34°C° 0.9 mm 3 mps 731 mmHg 66%
    18:00 +34°C° 0.6 mm 2 mps 732 mmHg 68%
    19:00 +32°C° 0.6 mm 2 mps 732 mmHg 71%
    20:00 +32°C° 0.6 mm 1 mps 732 mmHg 74%
    21:00 +31°C° 0.4 mm 2 mps 732 mmHg 75%
    22:00 +31°C° 0.4 mm 2 mps 733 mmHg 76%
    23:00 +31°C° 0.4 mm 2 mps 733 mmHg 76%
    Show more